Torna al catalogo

STARLINK-32875

AttivoComunicazioniVLEO
NORAD 62951·PAYLOAD·🇺🇸 United States

Lanciato Feb 11, 2025 da Vandenberg Space Force Base

Loading…

Prossimi Passaggi (prossime 24 ore)

TLE

AggiornatoSource: CelesTrak SupGP

Epoca: Sep 14, 2026, 20:53 UTC

1 62951C 25029D   26257.87062500 -.00002253  00000+0 -66579-4 0  2578
2 62951  53.1576  67.6717 0001193  85.9039  53.9779 15.34380946    18

Traccia STARLINK-32875 in tempo reale con AllMySat

Download on the App Store